Regional Weather Roundup
Issued by NWS

Home | Current Version | Previous Version | Text Only | Print | Product List | Glossary Off
Versions: 1 2 3 4 5 6 7 8 9 10 11 12 13 14 15 16 17 18 19 20 21 22 23 24 25 26 27 28 29 30 31 32 33 34 35 36 37 38 39 40 41 42 43 44 45 46 47 48 49 50

000
ASUS43 KLMK 172310
RWRKY
KENTUCKY REGIONAL WEATHER ROUNDUP
NATIONAL WEATHER SERVICE LOUISVILLE KY
700 PM EDT WED SEP 17 2014

NOTE "FAIR" INDICATES FEW OR NO CLOUDS BELOW 12,000 FEET
WITH NO SIGNIFICANT WEATHER AND/OR OBSTRUCTIONS TO VISIBILITY.

KYZ001>023-026-027-061>063-070>075-180000-
WESTERN AND SOUTH CENTRAL KENTUCKY

CITY           SKY/WX    TMP DP  RH WIND       PRES   REMARKS
PADUCAH        CLOUDY    73  58  59 CALM      29.95S
HENDERSON      SUNNY     70  52  52 E3        29.94S
OWENSBORO      PTCLDY    71  52  51 VRB5      29.94F
HOPKINSVILLE   PTSUNNY   70  54  57 S5        29.94S
BOWLING GREEN  PTCLDY    70  53  54 E5        29.94F
GLASGOW        PTCLDY    70  54  56 CALM      29.96S
$$

KYZ024-025-028>034-038-045-046-053-180000-
NORTH CENTRAL KENTUCKY

CITY           SKY/WX    TMP DP  RH WIND       PRES   REMARKS
LOUISVILLE/SDF PTCLDY    70  50  49 CALM      29.96F
LOUISVILLE/LOU PTCLDY    68  51  54 VRB6      29.96F
FORT KNOX      MOCLDY    66  56  70 NE5       29.95S
$$

KYZ035>037-039>044-047>052-055>060-089>105-180000-
NORTHEAST KENTUCKY

CITY           SKY/WX    TMP DP  RH WIND       PRES   REMARKS
LEXINGTON      CLEAR     67  53  61 N6        29.98S
COVINGTON      PTCLDY    65  50  58 W3        29.98F
FRANKFORT      PTCLDY    67  52  58 NW3       29.97F
$$

KYZ054-064>069-076>088-106>120-180000-
SOUTHEAST KENTUCKY

CITY           SKY/WX    TMP DP  RH WIND       PRES   REMARKS
JACKSON        CLEAR     66  52  60 CALM      29.98F
LONDON         CLEAR     70  54  56 NE5       29.98F
SOMERSET       NOT AVBL
MIDDLESBORO    CLEAR     70  54  57 CALM      29.97S
MONTICELLO     CLEAR     71  55  56 CALM      30.00R
$$




USA.gov is the U.S. government's official web portal to all federal, state and local government web resources and services.